OK2AF-5 Weather Reports


time (UTC)temp
C
wind
direction
speed
KPH
gust
KPH
rain 1hr
cm
rain 24hr
cm
rain mn
cm
humidity
%
barometer
mb
20260507020509 -17 0 0.0 4.8 0.00 0.00 0.00 1007.1
20260507015611 -17 0 0.0 3.2 0.00 0.03 0.00 1007.0
20260507014711 -17 0 0.0 0.0 0.00 0.03 0.00 1007.1
20260507013816 -17 0 0.0 4.8 0.00 0.03 0.00 1006.9
20260507012028 -17 0 3.2 4.8 0.00 0.03 0.00 1006.7
20260507011133 -17 0 1.6 8.0 0.00 0.03 0.00 1006.8
20260507010238 -17 315 3.2 6.4 0.00 0.03 0.00 1006.8
20260507005345 -17 0 3.2 4.8 0.00 0.03 0.00 1006.6
20260507004451 -17 0 4.8 9.7 0.00 0.03 0.00 1006.6
20260507003556 -17 315 4.8 9.7 0.00 0.03 0.00 1006.4
20260507002701 -17 0 9.7 11.3 0.00 0.03 0.00 1006.3
20260507001804 -17 0 4.8 8.0 0.00 0.03 0.00 1006.0
20260507000905 -17 0 3.2 8.0 0.00 0.03 0.00 1005.9
20260507000011 -17 0 4.8 6.4 0.00 0.03 0.00 1005.8
20260506235118 -17 0 6.4 6.4 0.00 0.03 0.00 1005.7
20260506234224 -17 0 3.2 9.7 0.00 0.03 0.00 1005.6
20260506233330 -17 45 6.4 11.3 0.00 0.03 0.00 1005.5
20260506232435 -17 0 11.3 11.3 0.00 0.03 0.00 1005.5
20260506231542 -17 0 3.2 17.7 0.00 0.03 0.00 1005.6
20260506230645 -17 0 4.8 17.7 0.00 0.03 0.00 1005.6
20260506225747 -17 0 6.4 11.3 0.00 0.03 0.00 1005.5
20260506224852 -17 0 4.8 14.5 0.00 0.03 0.00 1005.3
20260506223957 -17 0 6.4 19.3 0.00 0.03 0.00 1005.3
20260506223102 -17 0 6.4 22.5 0.00 0.03 0.00 1005.3
20260506222209 -17 0 12.9 27.4 0.00 0.03 0.00 1005.3
20260506221315 -17 0 12.9 24.1 0.00 0.03 0.00 1004.8
20260506220422 -17 45 11.3 11.3 0.00 0.03 0.00 1004.4
20260506215526 -17 270 0.0 3.2 0.00 0.03 0.03 1004.4
20260506214630 -17 270 1.6 1.6 0.00 0.03 0.03 1004.2
20260506213735 -17 270 0.0 1.6 0.00 0.03 0.03 1004.1
20260506212842 -17 270 0.0 3.2 0.00 0.03 0.03 1004.0
20260506211948 -17 270 3.2 4.8 0.00 0.03 0.03 1004.0
20260506211052 -17 315 3.2 3.2 0.00 0.03 0.03 1004.1
20260506210159 -17 315 0.0 0.0 0.00 0.03 0.03 1004.0
20260506205300 -17 315 1.6 1.6 0.00 0.03 0.03 1004.0
20260506204404 -17 315 0.0 1.6 0.00 0.03 0.03 1004.0
20260506203509 -17 315 0.0 4.8 0.00 0.03 0.03 1003.9
20260506202614 -17 315 0.0 4.8 0.00 0.03 0.03 1003.9
20260506201721 -17 0 0.0 0.0 0.00 0.03 0.03 1004.0
20260506200824 -17 0 0.0 1.6 0.00 0.03 0.03 1004.0
20260506195931 -17 0 1.6 1.6 0.00 0.03 0.03 1004.1
20260506195036 -17 0 0.0 4.8 0.00 0.03 0.03 1004.0
20260506194138 -17 0 4.8 4.8 0.00 0.03 0.03 1003.9
20260506193237 -17 0 0.0 6.4 0.00 0.03 0.03 1003.8
20260506192330 -17 0 6.4 9.7 0.00 0.03 0.03 1003.8
20260506191429 -17 0 8.0 11.3 0.00 0.03 0.03 1003.6
20260506190524 -17 0 4.8 12.9 0.00 0.03 0.03 1003.4
20260506185610 -17 0 6.4 11.3 0.00 0.03 0.03 1003.3
20260506184707 -17 45 3.2 3.2 0.00 0.03 0.03 1002.7
20260506183805 -17 90 3.2 4.8 0.00 0.03 0.03 1002.4
20260506182905 -17 90 3.2 6.4 0.00 0.03 0.03 1002.2
20260506182003 -17 180 3.2 14.5 0.00 0.03 0.03 1001.9
20260506181102 -17 180 8.0 16.1 0.00 0.03 0.03 1001.9
20260506180201 -17 225 6.4 17.7 0.00 0.03 0.03 1001.8
20260506175259 -17 180 8.0 25.7 0.00 0.03 0.03 1001.6
20260506174358 -17 180 17.7 20.9 0.00 0.03 0.03 1001.4
20260506173458 -17 180 9.7 24.1 0.00 0.03 0.03 1001.5
20260506172559 -17 180 8.0 27.4 0.00 0.03 0.03 1001.4
20260506171659 -17 180 19.3 29.0 0.00 0.03 0.03 1001.4
20260506170758 -17 180 14.5 38.6 0.00 0.03 0.03 1001.3
20260506165857 -17 180 20.9 33.8 0.00 0.03 0.03 1001.2
20260506164956 -17 180 12.9 30.6 0.00 0.03 0.03 1001.2
20260506164054 -17 180 16.1 29.0 0.00 0.03 0.03 1001.4
20260506163153 -17 225 17.7 29.0 0.00 0.03 0.03 1001.6
20260506162247 -17 135 12.9 35.4 0.00 0.03 0.03 1001.5
20260506161346 -17 180 17.7 32.2 0.00 0.03 0.03 1001.5
20260506160442 -17 180 12.9 33.8 0.00 0.03 0.03 1001.8
20260506155542 -17 180 22.5 29.0 0.00 0.03 0.03 1001.7
20260506154642 -17 225 22.5 37.0 0.00 0.03 0.03 1001.9
20260506153741 -17 225 11.3 33.8 0.00 0.03 0.03 1002.1
20260506152841 -17 270 16.1 29.0 0.00 0.03 0.03 1002.0
20260506151939 -17 225 8.0 33.8 0.00 0.03 0.03 1002.0
20260506151037 -17 270 19.3 45.1 0.00 0.03 0.03 1002.2
20260506150136 -17 180 19.3 37.0 0.00 0.03 0.03 1002.3
20260506145236 -17 180 12.9 30.6 0.00 0.03 0.03 1002.3
20260506144336 -17 135 11.3 30.6 0.00 0.03 0.03 1002.7
20260506143435 -17 158 9.7 22.5 0.00 0.03 0.03 1002.7
20260506142531 -17 180 9.7 27.4 0.00 0.03 0.03 1002.9
20260506141631 -17 180 11.3 33.8 0.00 0.03 0.03 1003.0
20260506140730 -17 180 19.3 35.4 0.00 0.03 0.03 1003.0
20260506135828 -17 225 8.0 33.8 0.00 0.03 0.03 1003.0
20260506134927 -17 180 27.4 32.2 0.00 0.03 0.03 1002.9
20260506134027 -17 180 12.9 32.2 0.00 0.03 0.03 1002.9
20260506133122 -17 203 20.9 30.6 0.00 0.03 0.03 1003.3
20260506132221 -17 180 19.3 32.2 0.00 0.03 0.03 1003.3
20260506131320 -17 180 1.6 14.5 0.00 0.03 0.03 1003.4
20260506130419 -17 270 4.8 14.5 0.00 0.03 0.03 1003.6
20260506125518 -17 225 3.2 17.7 0.00 0.03 0.03 1004.0
20260506124616 -17 180 9.7 16.1 0.00 0.03 0.03 1004.1
20260506123720 -17 180 6.4 24.1 0.00 0.03 0.03 1004.2
20260506122825 -17 180 14.5 29.0 0.00 0.03 0.03 1004.2
20260506121930 -17 180 9.7 22.5 0.00 0.03 0.03 1004.0
20260506121035 -17 225 14.5 25.7 0.00 0.03 0.03 1004.1
20260506120139 -17 225 4.8 20.9 0.00 0.03 0.03 1004.2
20260506115242 -17 315 1.6 17.7 0.00 0.03 0.03 1004.1
20260506114347 -17 158 3.2 17.7 0.00 0.03 0.03 1004.3
20260506113453 -17 180 4.8 17.7 0.00 0.03 0.03 1004.3
20260506112558 -17 180 8.0 19.3 0.00 0.03 0.03 1004.4
20260506111702 -17 225 3.2 20.9 0.00 0.03 0.03 1004.7
20260506110808 -17 135 0.0 19.3 0.00 0.03 0.03 1004.5
20260506105917 -17 270 8.0 22.5 0.00 0.03 0.03 1004.8
20260506105023 -17 225 11.3 22.5 0.00 0.03 0.03 1004.7
20260506104128 -17 225 3.2 20.9 0.00 0.03 0.03 1004.7
20260506103230 -17 45 1.6 22.5 0.00 0.03 0.03 1004.9
20260506102333 -17 180 16.1 22.5 0.00 0.03 0.03 1004.9
20260506101439 -17 270 14.5 24.1 0.00 0.03 0.03 1005.3
20260506100540 -17 180 4.8 11.3 0.00 0.03 0.03 1005.2
20260506095644 -17 270 1.6 19.3 0.00 0.03 0.03 1005.4
20260506094749 -17 248 9.7 16.1 0.00 0.03 0.03 1005.4
20260506093855 -17 270 11.3 16.1 0.00 0.03 0.03 1005.4
20260506093000 -17 270 4.8 19.3 0.00 0.03 0.03 1005.3
20260506092107 -17 270 6.4 16.1 0.00 0.03 0.03 1005.4
20260506091213 -17 225 3.2 20.9 0.00 0.03 0.03 1005.3
20260506090319 -17 225 11.3 20.9 0.00 0.03 0.03 1005.4
20260506085426 -17 158 12.9 14.5 0.00 0.03 0.03 1005.1
20260506084530 -17 135 9.7 19.3 0.00 0.03 0.03 1005.6
20260506083636 -17 0 14.5 20.9 0.00 0.03 0.03 1005.7
20260506082741 -17 0 9.7 14.5 0.00 0.03 0.03 1005.8
20260506081844 -17 315 12.9 17.7 0.00 0.03 0.03 1005.7
20260506080949 -17 270 3.2 19.3 0.00 0.03 0.03 1005.9
20260506073407 -17 0 17.7 22.5 0.00 0.03 0.03 1005.8
20260506072514 -17 270 8.0 22.5 0.00 0.03 0.03 1005.9
20260506071621 -17 0 8.0 20.9 0.00 0.03 0.03 1005.8
20260506070721 -17 270 12.9 27.4 0.00 0.03 0.03 1006.1
20260506062252 -17 0 12.9 24.1 0.00 0.03 0.03 1006.0
20260506061359 -17 0 14.5 30.6 0.00 0.03 0.03 1005.9
20260506060506 -17 270 9.7 32.2 0.00 0.03 0.03 1005.9
20260506051137 -17 315 1.6 12.9 0.00 0.03 0.03 1005.9
20260506050245 -17 90 0.0 4.8 0.00 0.03 0.03 1006.2
20260506044456 -17 270 0.0 3.2 0.00 0.03 0.03 1006.4
20260506043558 -17 0 1.6 1.6 0.00 0.03 0.03 1006.7
20260506042703 -17 0 0.0 3.2 0.00 0.03 0.03 1006.5
20260506041807 -17 0 3.2 4.8 0.00 0.03 0.03 1006.5
20260506040912 -17 0 1.6 4.8 0.00 0.03 0.03 1006.6
20260506040019 -17 0 0.0 0.0 0.00 0.03 0.03 1006.5
20260506035122 -17 0 0.0 0.0 0.00 0.03 0.03 1006.4
20260506034228 -17 0 0.0 0.0 0.00 0.03 0.03 1006.4
20260506033334 -17 0 0.0 0.0 0.00 0.03 0.03 1006.2
20260506032440 -17 0 0.0 0.0 0.00 0.03 0.03 1006.2
20260506031546 -17 0 0.0 0.0 0.00 0.03 0.03 1006.3
20260506030648 -17 0 0.0 4.8 0.00 0.03 0.03 1006.2
20260506025753 -17 0 0.0 0.0 0.00 0.03 0.03 1006.3
20260506024857 -17 0 0.0 1.6 0.00 0.03 0.03 1006.1
20260506024003 -17 0 1.6 1.6 0.00 0.03 0.03 1006.0
20260506023108 -17 0 0.0 1.6 0.00 0.03 0.03 1005.8
20260506022214 -17 0 0.0 0.0 0.00 0.03 0.03 1005.7
20260506021319 -17 0 0.0 0.0 0.00 0.03 0.03 1005.6